Time_in_sec,Latitude,Longitude,Altitude,Nbsat_max_qualitysignal,Nbsat_locked,valid_data
1314892738.84343219,46.54723740,8.71081829,1966.91992188,0,8,1
1314892847.29271483,46.54724121,8.71083260,1964.49597168,0,7,1
1314892847.34551382,46.54724121,8.71083260,1964.47583008,0,7,1
1314892847.39261937,46.54724121,8.71083260,1964.62683105,0,7,1
1314892847.44508958,46.54724503,8.71083164,1964.61340332,0,7,1
1314892847.49259949,46.54724503,8.71083164,1964.59387207,0,7,1
1314892847.54728937,46.54724503,8.71083164,1964.57421875,0,7,1
1314892847.59259295,46.54724503,8.71083164,1964.55456543,0,7,1
1314892847.64560628,46.54724503,8.71083260,1964.69006348,0,7,1
1314892847.69286799,46.54724503,8.71083260,1964.67077637,0,7,1
1314892847.74458313,46.54724503,8.71083260,1964.65148926,0,7,1
1314892847.79247475,46.54724503,8.71083164,1964.63220215,0,7,1
1314892847.84460974,46.54724503,8.71083164,1964.61279297,0,7,1
1314892847.89258647,46.54724503,8.71083260,1964.75292969,0,7,1
1314892847.94460893,46.54724503,8.71083260,1964.73400879,0,7,1
1314892847.99259329,46.54724503,8.71083260,1964.71508789,0,7,1
1314892848.04481435,46.54724503,8.71083260,1964.69604492,0,7,1
1314892848.09258223,46.54724884,8.71083260,1964.67712402,0,7,1
1314892848.14560580,46.54724884,8.71083355,1964.83557129,0,7,1
1314892848.19261909,46.54724503,8.71083260,1964.81958008,0,7,1
1314892848.24551630,46.54724503,8.71083260,1964.80114746,0,7,1
1314892848.29359794,46.54724503,8.71083260,1964.78271484,0,7,1
1314892848.34457302,46.54724503,8.71083260,1964.76416016,0,7,1
1314892848.39266777,46.54724884,8.71083260,1964.74560547,0,7,1
1314892848.44463873,46.54724503,8.71083260,1964.90771484,0,7,1
1314892848.49252796,46.54724503,8.71083260,1964.88964844,0,7,1
1314892848.54458022,46.54724503,8.71083260,1964.87158203,0,7,1
1314892848.59261680,46.54724503,8.71083260,1964.85351562,0,7,1
1314892848.64389086,46.54724503,8.71083260,1964.83532715,0,7,1
1314892848.69345593,46.54724503,8.71083355,1965.00634766,0,7,1
1314892848.74535394,46.54724503,8.71083355,1964.98889160,0,7,1
1314892848.79243064,46.54724503,8.71083355,1964.97131348,0,7,1
1314892848.84444118,46.54724503,8.71083355,1964.95361328,0,7,1
1314892848.89256048,46.54724503,8.71083355,1965.14306641,0,7,1
1314892848.94455242,46.54724503,8.71083355,1965.12622070,0,7,1
1314892848.99247503,46.54724503,8.71083355,1965.10925293,0,7,1
1314892849.04447317,46.54724503,8.71083355,1965.09228516,0,7,1
1314892849.09472418,46.54724503,8.71083355,1965.07531738,0,7,1
1314892849.14526749,46.54724503,8.71083355,1965.25329590,0,7,1
1314892849.19248581,46.54724503,8.71083260,1965.24548340,0,7,1
1314892849.24419188,46.54724503,8.71083260,1965.22912598,0,7,1
1314892849.29331946,46.54724503,8.71083260,1965.21276855,0,7,1
1314892849.34458256,46.54724503,8.71083260,1965.19628906,0,7,1
1314892849.39350557,46.54724503,8.71083355,1965.38183594,0,7,1
1314892849.44549251,46.54724503,8.71083355,1965.36120605,0,7,1
1314892849.49341750,46.54724503,8.71083355,1965.34533691,0,7,1
1314892849.54551649,46.54724503,8.71083355,1965.32946777,0,7,1
1314892849.59257579,46.54724503,8.71083355,1965.31347656,0,7,1
1314892849.64449978,46.54724503,8.71083355,1965.50634766,0,7,1
1314892849.69328856,46.54724503,8.71083450,1965.48925781,0,7,1
1314892849.74549961,46.54724503,8.71083450,1965.47387695,0,7,1
1314892849.79250598,46.54724503,8.71083450,1965.45861816,0,7,1
1314892849.84518242,46.54724503,8.71083450,1965.44311523,0,7,1
1314892849.89306331,46.54724503,8.71083546,1965.64758301,0,7,1
1314892849.94518566,46.54724503,8.71083450,1965.63293457,0,7,1
1314892849.99258709,46.54724503,8.71083450,1965.61828613,0,7,1
1314892850.04464245,46.54724503,8.71083450,1965.60351562,0,7,1
1314892850.09360456,46.54724503,8.71083450,1965.58862305,0,7,1
1314892850.14553428,46.54724503,8.71083450,1965.57385254,0,7,1
1314892850.19257355,46.54724503,8.71083641,1965.78015137,0,7,1
1314892850.24603295,46.54724503,8.71083641,1965.76611328,0,7,1
1314892850.29346991,46.54724503,8.71083641,1965.75195312,0,7,1
1314892850.34553218,46.54724503,8.71083641,1965.73767090,0,7,1
1314892850.39359808,46.54724503,8.71083736,1965.95349121,0,7,1
1314892850.44451141,46.54724503,8.71083927,1965.92602539,0,7,1
1314892850.49291921,46.54724503,8.71083927,1965.91247559,0,7,1
1314892850.54453731,46.54724503,8.71083927,1965.89892578,0,7,1
1314892850.59259200,46.54724503,8.71083927,1965.88525391,0,7,1
1314892850.64558268,46.54724503,8.71084023,1966.10559082,0,7,1
1314892850.69289184,46.54724121,8.71084118,1966.07727051,0,7,1
1314892850.74449682,46.54724121,8.71084118,1966.06420898,0,7,1
1314892850.79259753,46.54724121,8.71084118,1966.05114746,0,7,1
1314892850.84445190,46.54724121,8.71084118,1966.03808594,0,7,1
1314892850.89267063,46.54724121,8.71084213,1966.27331543,0,7,1
1314892850.94462752,46.54724121,8.71084213,1966.26098633,0,7,1
1314892850.99345946,46.54724121,8.71084213,1966.24877930,0,7,1
1314892851.04294610,46.54724121,8.71084213,1966.23645020,0,7,1
1314892851.09293914,46.54724121,8.71084213,1966.22399902,0,7,1
1314892851.14547753,46.54724121,8.71084213,1966.21154785,0,7,1
1314892851.19261956,46.54724121,8.71084118,1966.43957520,0,7,1
1314892851.24483156,46.54724121,8.71084118,1966.42785645,0,7,1
1314892851.29257751,46.54724121,8.71084118,1966.41613770,0,7,1
1314892851.34803176,46.54724121,8.71084118,1966.40441895,0,7,1
1314892851.39356923,46.54724121,8.71084213,1966.64062500,0,7,1
1314892851.44452214,46.54724121,8.71084118,1966.63513184,0,7,1
1314892851.49364376,46.54724121,8.71084118,1966.62426758,0,7,1
1314892851.54157686,46.54724121,8.71084118,1966.61328125,0,7,1
1314892851.59354591,46.54724121,8.71084118,1966.60241699,0,7,1
1314892851.64553881,46.54724121,8.71084118,1966.59130859,0,7,1
1314892851.69250822,46.54724121,8.71084118,1966.85412598,0,7,1
1314892851.74446535,46.54724121,8.71084118,1966.84399414,0,7,1
1314892851.79359412,46.54724121,8.71084118,1966.83386230,0,7,1
1314892851.84452367,46.54724121,8.71084118,1966.82373047,0,7,1
1314892851.89248729,46.54724503,8.71084309,1967.08435059,0,7,1
1314892851.94489264,46.54724503,8.71084309,1967.08227539,0,7,1
1314892851.99249101,46.54724503,8.71084309,1967.07299805,0,7,1
1314892852.04449749,46.54724503,8.71084309,1967.06372070,0,7,1
1314892852.09346962,46.54724503,8.71084309,1967.05432129,0,7,1
1314892852.14547110,46.54724503,8.71084309,1967.04492188,0,7,1
1314892852.19270396,46.54724503,8.71084499,1967.30871582,0,7,1
1314892852.24450517,46.54724503,8.71084499,1967.30029297,0,7,1
1314892852.29245400,46.54724503,8.71084499,1967.29174805,0,7,1
1314892852.34570146,46.54724503,8.71084499,1967.28308105,0,7,1
1314892852.39268756,46.54724503,8.71084499,1967.27453613,0,7,1
1314892852.44456196,46.54724503,8.71084595,1967.54809570,0,7,1
1314892852.49257827,46.54724503,8.71084595,1967.54040527,0,7,1
1314892852.54450846,46.54724503,8.71084595,1967.53271484,0,7,1
1314892852.59258509,46.54724503,8.71084595,1967.52490234,0,7,1
1314892852.64564729,46.54724503,8.71084595,1967.51721191,0,7,1
1314892852.69252825,46.54724503,8.71084690,1967.83264160,0,7,1
1314892852.74450636,46.54724503,8.71084690,1967.82604980,0,7,1
1314892852.79259253,46.54724503,8.71084690,1967.81933594,0,7,1
1314892852.84454870,46.54724503,8.71084690,1967.81262207,0,7,1
1314892852.89258504,46.54724503,8.71084881,1968.11755371,0,8,1
1314892852.94449282,46.54724503,8.71084785,1968.10192871,0,8,1
1314892852.99257970,46.54724503,8.71084785,1968.09619141,0,8,1
1314892853.04559779,46.54724503,8.71084785,1968.09033203,0,8,1
1314892853.09258032,46.54724503,8.71084785,1968.08435059,0,8,1
1314892853.14646363,46.54724503,8.71084785,1968.07849121,0,8,1
1314892853.19359326,46.54724503,8.71084785,1968.36108398,0,8,1
1314892853.24556160,46.54724503,8.71084785,1968.35607910,0,8,1
1314892853.29360056,46.54724503,8.71084785,1968.35107422,0,8,1
1314892853.34425807,46.54724503,8.71084785,1968.34606934,0,8,1
1314892853.39366889,46.54724503,8.71084785,1968.34094238,0,8,1
1314892853.44548702,46.54724503,8.71084976,1968.63281250,0,8,1
1314892853.49360681,46.54724503,8.71084976,1968.62878418,0,8,1
1314892853.54560637,46.54724503,8.71084976,1968.62475586,0,8,1
1314892853.59361362,46.54724503,8.71084976,1968.62060547,0,8,1
1314892853.64553714,46.54724503,8.71084976,1968.61645508,0,8,1
1314892853.69247532,46.54724503,8.71085167,1968.88342285,0,8,1
1314892853.74486971,46.54724503,8.71085167,1968.88000488,0,8,1
1314892853.79360127,46.54724503,8.71085167,1968.87670898,0,8,1
1314892853.84459448,46.54724503,8.71085167,1968.87329102,0,8,1
1314892853.89246821,46.54724503,8.71085167,1968.86987305,0,8,1
1314892853.94558406,46.54724503,8.71085167,1969.16333008,0,8,1
1314892853.99260068,46.54724503,8.71085167,1969.16101074,0,8,1
1314892854.04479074,46.54724503,8.71085167,1969.15856934,0,8,1
1314892854.09260607,46.54724503,8.71085167,1969.15612793,0,8,1
1314892854.14545202,46.54724503,8.71085167,1969.15356445,0,8,1
1314892854.19248772,46.54724503,8.71085262,1969.43933105,0,8,1
1314892854.24203539,46.54724503,8.71085262,1969.43774414,0,8,1
1314892854.29269052,46.54724503,8.71085262,1969.43615723,0,8,1
1314892854.34161568,46.54724503,8.71085262,1969.43457031,0,8,1
1314892854.39258146,46.54724503,8.71085262,1969.43286133,0,8,1
1314892854.44563556,46.54724503,8.71085453,1969.71789551,0,8,1
1314892854.49361014,46.54724503,8.71085453,1969.71716309,0,8,1
1314892854.54268479,46.54724503,8.71085453,1969.71643066,0,8,1
1314892854.59261727,46.54724503,8.71085453,1969.71569824,0,8,1
1314892854.64168739,46.54724503,8.71085548,1969.99511719,0,8,1
1314892854.69261765,46.54724503,8.71085453,1969.98889160,0,8,1
1314892854.74152970,46.54724503,8.71085453,1969.98901367,0,8,1
1314892854.79247832,46.54724503,8.71085453,1969.98901367,0,8,1
1314892854.84451365,46.54724503,8.71085453,1969.98901367,0,8,1
1314892854.89257526,46.54724503,8.71085644,1970.26416016,0,8,1
1314892854.94554543,46.54724503,8.71085644,1970.25146484,0,8,1
1314892854.99251223,46.54724503,8.71085644,1970.25231934,0,8,1
1314892855.04538918,46.54724503,8.71085644,1970.25305176,0,8,1
1314892855.09251332,46.54724503,8.71085644,1970.25366211,0,8,1
1314892855.14512634,46.54724503,8.71085644,1970.25439453,0,8,1
1314892855.19249439,46.54724121,8.71085739,1970.51123047,0,8,1
1314892855.24567056,46.54724121,8.71085739,1970.51269531,0,8,1
1314892855.29249978,46.54724121,8.71085739,1970.51403809,0,8,1
1314892855.34452486,46.54724121,8.71085739,1970.51550293,0,8,1
1314892855.39351821,46.54724121,8.71085739,1970.51684570,0,8,1
1314892855.44457245,46.54724121,8.71085835,1970.77551270,0,8,1
1314892855.49250698,46.54724121,8.71085835,1970.77758789,0,8,1
1314892855.54447532,46.54724121,8.71085835,1970.77978516,0,8,1
1314892855.59256887,46.54724121,8.71085835,1970.78186035,0,8,1
1314892855.64447641,46.54724121,8.71085739,1970.78381348,0,8,1
1314892855.69257760,46.54724121,8.71085930,1971.03222656,0,8,1
1314892855.74518490,46.54724121,8.71085930,1971.03515625,0,8,1
1314892855.79251790,46.54724121,8.71085930,1971.03796387,0,8,1
1314892855.84450364,46.54724121,8.71085930,1971.04064941,0,8,1
1314892855.89248037,46.54724121,8.71085930,1971.04333496,0,8,1
1314892855.94459748,46.54724121,8.71086121,1971.28588867,0,8,1
1314892855.99257898,46.54724121,8.71086121,1971.28930664,0,8,1
1314892856.04444957,46.54724121,8.71086121,1971.29260254,0,8,1
1314892856.09250784,46.54724121,8.71086121,1971.29602051,0,8,1
1314892856.14468217,46.54724121,8.71086121,1971.29919434,0,8,1
1314892856.19350457,46.54724121,8.71086311,1971.54321289,0,8,1
1314892856.24460745,46.54724121,8.71086311,1971.54724121,0,8,1
1314892856.29258084,46.54724121,8.71086311,1971.55114746,0,8,1
1314892856.34548855,46.54724121,8.71086311,1971.55517578,0,8,1
1314892856.39258575,46.54724121,8.71086311,1971.55908203,0,8,1
1314892856.44448876,46.54724121,8.71086407,1971.79455566,0,8,1
1314892856.49247551,46.54724121,8.71086407,1971.79919434,0,8,1
1314892856.54541731,46.54724121,8.71086407,1971.80371094,0,8,1
1314892856.59361553,46.54724121,8.71086407,1971.80834961,0,8,1
1314892856.64448929,46.54724121,8.71086407,1971.81274414,0,8,1
1314892856.69360566,46.54724121,8.71086502,1972.04504395,0,8,1
1314892856.74550557,46.54724121,8.71086502,1972.05029297,0,8,1
1314892856.79359293,46.54724121,8.71086502,1972.05541992,0,8,1
1314892856.84484982,46.54724121,8.71086502,1972.06054688,0,8,1
1314892856.89261937,46.54724121,8.71086502,1972.06567383,0,8,1
1314892856.94481874,46.54724121,8.71086788,1972.28442383,0,8,1
1314892856.99358726,46.54724121,8.71086788,1972.29016113,0,8,1
1314892857.04461789,46.54724121,8.71086788,1972.29577637,0,8,1
1314892857.09278297,46.54724121,8.71086788,1972.30139160,0,8,1
1314892857.14460015,46.54724121,8.71086788,1972.30700684,0,8,1
1314892857.19361115,46.54724121,8.71086979,1972.51892090,0,8,1
1314892857.24462056,46.54724121,8.71086979,1972.52514648,0,8,1
1314892857.29257417,46.54724121,8.71086979,1972.53125000,0,8,1
1314892857.34572244,46.54724121,8.71086979,1972.53735352,0,8,1
1314892857.39268112,46.54724121,8.71086979,1972.54345703,0,8,1
1314892857.44550753,46.54724121,8.71087170,1972.74865723,0,8,1
1314892857.49260163,46.54724121,8.71087170,1972.75524902,0,8,1
1314892857.54447842,46.54724121,8.71087170,1972.76196289,0,8,1
1314892857.59259272,46.54724121,8.71087170,1972.76843262,0,8,1
1314892857.64454722,46.54723740,8.71087170,1972.77502441,0,8,1
1314892857.69258547,46.54723740,8.71087265,1972.97607422,0,8,1
1314892857.74458909,46.54723740,8.71087265,1972.98315430,0,8,1
1314892857.79259658,46.54723740,8.71087265,1972.99023438,0,8,1
1314892857.84452939,46.54723740,8.71087265,1972.99719238,0,8,1
1314892857.89359975,46.54723740,8.71087265,1973.00415039,0,8,1
1314892857.94463658,46.54723740,8.71087265,1973.20141602,0,8,1
1314892857.99253368,46.54723740,8.71087265,1973.20898438,0,8,1
1314892858.04471850,46.54723740,8.71087265,1973.21643066,0,8,1
1314892858.09248257,46.54723740,8.71087360,1973.22387695,0,8,1
1314892858.14444923,46.54723740,8.71087360,1973.23132324,0,8,1
1314892858.19347715,46.54723740,8.71087360,1973.41467285,0,8,1
1314892858.24448109,46.54723740,8.71087360,1973.42260742,0,8,1
1314892858.29258108,46.54723358,8.71087456,1973.43054199,0,8,1
1314892858.34450984,46.54723358,8.71087456,1973.43835449,0,8,1
1314892858.39350033,46.54723358,8.71087456,1973.44616699,0,8,1
1314892858.44559073,46.54723358,8.71087456,1973.60461426,0,8,1
1314892858.49246168,46.54723358,8.71087456,1973.61291504,0,8,1
1314892858.54455400,46.54723358,8.71087456,1973.62109375,0,8,1
1314892858.59258437,46.54723358,8.71087456,1973.62927246,0,8,1
1314892858.64458585,46.54723358,8.71087456,1973.63732910,0,8,1
1314892858.69245625,46.54723358,8.71087551,1973.78576660,0,8,1
1314892858.74527454,46.54723358,8.71087551,1973.79431152,0,8,1
1314892858.79258251,46.54723358,8.71087551,1973.80273438,0,8,1
1314892858.84458661,46.54723358,8.71087551,1973.81115723,0,8,1
1314892858.89321566,46.54723358,8.71087551,1973.81945801,0,8,1
1314892858.94447112,46.54723358,8.71087551,1973.95715332,0,8,1
1314892858.99259233,46.54723358,8.71087551,1973.96582031,0,8,1
1314892859.04507613,46.54723358,8.71087551,1973.97436523,0,8,1
1314892859.09246850,46.54723358,8.71087551,1973.98303223,0,8,1
1314892859.14562631,46.54723358,8.71087551,1973.99157715,0,8,1
1314892859.19248319,46.54723358,8.71087456,1974.12280273,0,8,1
1314892859.24459124,46.54723358,8.71087456,1974.13159180,0,8,1
1314892859.29260969,46.54722977,8.71087456,1974.14038086,0,8,1
1314892859.34460568,46.54722977,8.71087456,1974.14916992,0,8,1
1314892859.39267421,46.54722977,8.71087456,1974.15783691,0,8,1
1314892859.44503975,46.54722977,8.71087456,1974.27087402,0,8,1
1314892859.49258018,46.54722977,8.71087456,1974.27978516,0,8,1
1314892859.54445672,46.54722977,8.71087456,1974.28881836,0,8,1
1314892859.59251690,46.54722977,8.71087456,1974.29760742,0,8,1
1314892859.64458418,46.54722977,8.71087456,1974.30651855,0,8,1
1314892859.69506073,46.54722977,8.71087456,1974.41064453,0,8,1
1314892859.74458051,46.54722977,8.71087456,1974.41979980,0,8,1
1314892859.79361463,46.54722977,8.71087456,1974.42883301,0,8,1
1314892859.84454560,46.54722977,8.71087456,1974.43774414,0,8,1
1314892859.89347124,46.54722977,8.71087360,1974.53344727,0,8,1
1314892859.94462228,46.54722977,8.71087360,1974.54272461,0,8,1
1314892859.99262047,46.54722977,8.71087360,1974.55187988,0,8,1
1314892860.04554296,46.54722977,8.71087265,1974.56103516,0,8,1
1314892860.09261894,46.54722977,8.71087265,1974.57019043,0,8,1
1314892860.14479566,46.54722977,8.71087265,1974.57922363,0,8,1
1314892860.19261789,46.54722977,8.71087265,1974.67028809,0,8,1
1314892860.24548459,46.54722595,8.71087265,1974.67956543,0,8,1
1314892860.29247189,46.54722595,8.71087265,1974.68884277,0,8,1
1314892860.34471512,46.54722595,8.71087265,1974.69799805,0,8,1
1314892860.39257860,46.54722595,8.71087265,1974.70715332,0,8,1
1314892860.44157267,46.54722595,8.71087265,1974.77758789,0,8,1
1314892860.49360466,46.54722595,8.71087265,1974.78686523,0,8,1
1314892860.54451585,46.54722595,8.71087265,1974.79602051,0,8,1
1314892860.59259081,46.54722595,8.71087265,1974.80517578,0,8,1
1314892860.64159584,46.54722595,8.71087265,1974.81420898,0,8,1
1314892860.69358897,46.54722977,8.71087360,1974.87390137,0,8,1
1314892860.74156475,46.54722977,8.71087360,1974.88305664,0,8,1
1314892860.79247808,46.54722977,8.71087265,1974.89221191,0,8,1
1314892860.84451818,46.54722977,8.71087265,1974.90124512,0,8,1
1314892860.89246202,46.54722977,8.71087265,1974.91027832,0,8,1
1314892860.94467258,46.54722977,8.71087360,1974.96142578,0,8,1
1314892860.99248314,46.54722977,8.71087360,1974.97045898,0,8,1
1314892861.04455328,46.54722977,8.71087360,1974.97949219,0,8,1
1314892861.09246922,46.54722977,8.71087360,1974.98840332,0,8,1
1314892861.14450693,46.54722977,8.71087360,1974.99731445,0,8,1
1314892861.19248128,46.54722977,8.71087360,1975.04528809,0,8,1
1314892861.24539280,46.54722977,8.71087360,1975.05419922,0,8,1
1314892861.29251552,46.54722977,8.71087360,1975.06311035,0,8,1
1314892861.34550929,46.54722977,8.71087360,1975.07202148,0,8,1
1314892861.39267278,46.54722977,8.71087265,1975.08081055,0,8,1
1314892861.44553328,46.54722977,8.71087456,1975.11291504,0,8,1
1314892861.49257159,46.54722977,8.71087456,1975.12170410,0,8,1
1314892861.54623079,46.54722977,8.71087456,1975.13037109,0,8,1
1314892861.59327531,46.54722977,8.71087456,1975.13916016,0,8,1
1314892861.64550304,46.54722977,8.71087360,1975.14770508,0,8,1
1314892861.69350576,46.54722977,8.71087456,1975.17944336,0,8,1
1314892861.74458170,46.54722977,8.71087456,1975.18798828,0,8,1
1314892861.79259014,46.54722977,8.71087456,1975.19653320,0,8,1
1314892861.84540892,46.54722977,8.71087456,1975.20507812,0,8,1
1314892861.89311004,46.54722977,8.71087456,1975.21350098,0,8,1
1314892861.94554567,46.54722977,8.71087551,1975.23840332,0,8,1
1314892861.99350333,46.54722977,8.71087456,1975.24670410,0,8,1
1314892862.04557419,46.54722977,8.71087456,1975.25500488,0,8,1
1314892862.09257245,46.54722977,8.71087456,1975.26330566,0,8,1
1314892862.14562392,46.54722977,8.71087456,1975.27148438,0,8,1
1314892862.19246531,46.54722977,8.71087551,1975.29077148,0,8,1
1314892862.24448991,46.54722977,8.71087551,1975.29882812,0,8,1
1314892862.29247284,46.54722977,8.71087551,1975.30700684,0,8,1
1314892862.34549522,46.54722977,8.71087551,1975.31494141,0,8,1
1314892862.39258075,46.54722977,8.71087551,1975.32299805,0,8,1
1314892862.44549084,46.54722977,8.71087456,1975.34729004,0,8,1
1314892862.49258327,46.54722977,8.71087456,1975.35534668,0,8,1
1314892862.54450059,46.54722977,8.71087456,1975.36315918,0,8,1
1314892862.59258676,46.54722977,8.71087456,1975.37109375,0,8,1
1314892862.64463186,46.54722977,8.71087456,1975.37878418,0,8,1
1314892862.69361401,46.54722977,8.71087360,1975.38342285,0,8,1
1314892862.74488616,46.54722977,8.71087360,1975.39099121,0,8,1
1314892862.79257536,46.54722977,8.71087360,1975.39855957,0,8,1
1314892862.84451413,46.54722977,8.71087360,1975.40600586,0,8,1
1314892862.89259410,46.54722977,8.71087360,1975.41357422,1,8,1
1314892862.94456315,46.54722977,8.71087265,1975.42395020,1,8,1
1314892862.99246812,46.54722977,8.71087265,1975.43127441,1,8,1
1314892863.04476738,46.54722977,8.71087265,1975.43859863,1,8,1
1314892863.09267855,46.54722977,8.71087265,1975.44592285,1,8,1
1314892863.14559460,46.54722977,8.71087265,1975.45312500,1,8,1
1314892863.19258690,46.54722977,8.71087170,1975.47106934,1,8,1
1314892863.24482369,46.54722977,8.71087170,1975.47827148,1,8,1
1314892863.29259396,46.54722977,8.71087170,1975.48535156,1,8,1
1314892863.34460235,46.54722977,8.71087170,1975.49243164,1,8,1
1314892863.39258575,46.54722977,8.71087170,1975.49951172,1,8,1
1314892863.44160962,46.54722977,8.71087074,1975.49499512,1,8,1
1314892863.49352956,46.54722977,8.71087074,1975.50183105,1,8,1
1314892863.54462767,46.54722977,8.71087074,1975.50866699,1,8,1
1314892863.59355807,46.54722977,8.71087074,1975.51550293,1,8,1
1314892863.64162111,46.54722977,8.71087074,1975.52221680,1,8,1
1314892863.69345331,46.54722977,8.71087074,1975.51281738,1,8,1
1314892863.74474096,46.54722977,8.71087074,1975.51928711,1,8,1
1314892863.79485011,46.54722977,8.71087074,1975.52587891,1,8,1
1314892863.84454846,46.54722977,8.71087074,1975.53234863,1,8,1
1314892863.89353704,46.54722977,8.71086979,1975.53881836,1,8,1
1314892863.94543862,46.54722977,8.71087074,1975.52001953,1,8,1
1314892863.99512434,46.54722977,8.71087074,1975.52612305,1,8,1
1314892864.04454207,46.54722977,8.71087074,1975.53234863,1,8,1
1314892864.09349322,46.54722977,8.71087074,1975.53845215,1,8,1
1314892864.14556289,46.54722977,8.71087074,1975.54443359,1,8,1
1314892864.19259071,46.54722977,8.71087170,1975.52929688,1,8,1
1314892864.24451423,46.54722977,8.71087170,1975.53503418,1,8,1
1314892864.29262567,46.54722977,8.71087170,1975.54089355,1,8,1
1314892864.34556222,46.54722977,8.71087170,1975.54663086,1,8,1
1314892864.39264011,46.54722977,8.71087170,1975.55224609,1,8,1
1314892864.44552803,46.54722977,8.71087265,1975.53247070,1,8,1
1314892864.49262023,46.54722977,8.71087265,1975.53784180,1,8,1
1314892864.54556441,46.54722977,8.71087265,1975.54321289,1,8,1
1314892864.59258461,46.54722977,8.71087265,1975.54858398,1,8,1
1314892864.64553857,46.54722977,8.71087265,1975.55395508,1,8,1
1314892864.69357514,46.54722977,8.71087360,1975.54296875,1,8,1
1314892864.74573231,46.54722977,8.71087360,1975.54809570,1,8,1
1314892864.79350877,46.54722977,8.71087265,1975.55322266,1,8,1
1314892864.84233689,46.54722977,8.71087265,1975.55822754,1,8,1
1314892864.89261055,46.54722977,8.71087360,1975.56127930,1,8,1
1314892864.94547105,46.54722977,8.71087360,1975.55859375,1,8,1
1314892864.99301434,46.54722977,8.71087360,1975.56347656,1,8,1
1314892865.04567862,46.54722977,8.71087360,1975.56823730,1,8,1
1314892865.09257460,46.54722977,8.71087360,1975.57299805,1,8,1
